EW3203 Weather Reports


time (UTC)temp
C
wind
direction
speed
KPH
gust
KPH
rain 1hr
cm
rain 24hr
cm
rain mn
cm
humidity
%
barometer
mb
20260506211511 7 56 3.2 11.3 0.10 2.77 2.77 96 1005.7
20260506210017 7 76 3.2 17.7 0.08 2.74 2.74 96 1005.6
20260506204511 7 42 4.8 19.3 0.08 2.69 2.69 95 1005.6
20260506203010 7 69 4.8 16.1 0.18 2.67 2.67 95 1005.4
20260506201511 7 29 1.6 14.5 0.23 2.67 2.67 96 1005.1
20260506200008 7 52 3.2 14.5 0.25 2.67 2.67 95 1005.2
20260506194507 7 359 3.2 16.1 0.28 2.64 2.62 95 1005.5
20260506193004 7 48 8.0 16.1 0.25 2.51 2.49 95 1005.4
20260506191502 7 266 4.8 17.7 0.33 2.46 2.44 95 1005.2
20260506190109 7 77 3.2 11.3 0.38 2.44 2.41 95 1005.2
20260506190004 8 18 1.6 11.3 0.38 2.44 2.41 95 1005.1
20260506184603 8 43 3.2 12.9 0.38 2.36 2.34 95 1005.2
20260506183103 8 31 0.0 12.9 0.30 2.26 2.24 95 1005.3
20260506181620 8 1 1.6 8.0 0.28 2.13 2.11 95 1005.1
20260506180052 9 24 1.6 9.7 0.30 2.06 2.03 96 1005.1
20260506174550 9 15 0.0 9.7 0.38 1.98 1.96 96 1005.0
20260506173057 9 6 0.0 11.3 0.41 1.93 1.91 96 1005.0
20260506171545 9 15 0.0 6.4 0.41 1.85 1.83 95 1005.1
20260506170047 9 41 1.6 4.8 0.36 1.75 1.73 95 1005.3
20260506164543 9 10 1.6 4.8 0.30 1.60 1.57 95 1005.5
20260506163040 9 51 3.2 11.3 0.33 1.52 1.50 95 1005.6
20260506161536 10 30 0.0 9.7 0.36 1.42 1.42 95 1005.8
20260506160034 10 61 0.0 8.0 0.41 1.40 1.37 95 1005.9
20260506154533 10 94 1.6 4.8 0.41 1.30 1.27 95 1006.2
20260506153030 10 33 0.0 3.2 0.41 1.19 1.17 95 1006.1
20260506151528 10 27 3.2 11.3 0.41 1.09 1.07 95 1006.2
20260506150027 11 24 0.0 4.8 0.36 0.97 0.94 95 1006.4
20260506144525 11 79 1.6 4.8 0.33 0.86 0.84 95 1006.6
20260506143023 11 32 0.0 8.0 0.33 0.79 0.76 95 1006.8
20260506141522 11 37 0.0 4.8 0.28 0.69 0.66 95 1007.1
20260506140023 11 27 1.6 6.4 0.25 0.61 0.58 95 1007.0
20260506134520 11 47 3.2 11.3 0.25 0.53 0.51 95 1006.8
20260506133018 11 42 3.2 14.5 0.25 0.46 0.43 94 1006.6
20260506131524 12 53 1.6 8.0 0.28 0.41 0.38 94 1006.5
20260506130014 12 41 0.0 6.4 0.25 0.36 0.33 94 1006.8
20260506124513 13 11 0.0 1.6 0.20 0.28 0.25 95 1006.9
20260506123012 13 355 0.0 3.2 0.13 0.20 0.18 94 1006.9
20260506121510 13 208 0.0 0.0 0.05 0.13 0.10 95 1007.3
20260506120017 13 208 0.0 1.6 0.05 0.10 0.08 95 1007.1
20260506114518 13 210 0.0 0.0 0.03 0.08 0.05 95 1006.6
20260506113023 13 210 0.0 0.0 0.03 0.08 0.05 95 1006.5
20260506111510 13 211 0.0 0.0 0.05 0.08 0.05 95 1006.8
20260506110011 12 211 0.0 0.0 0.03 0.05 0.03 94 1006.7
20260506104506 12 210 0.0 0.0 0.03 0.08 0.03 94 1006.6
20260506103009 12 210 0.0 0.0 0.03 0.08 0.03 93 1006.5
20260506101508 12 210 0.0 0.0 0.00 0.05 0.00 93 1006.4
20260506100009 12 210 0.0 0.0 0.00 0.05 0.00 93 1006.3
20260506094505 12 210 0.0 0.0 0.00 0.05 0.00 92 1006.3
20260506093004 12 210 0.0 0.0 0.00 0.05 0.00 92 1006.3
20260506091505 12 210 0.0 0.0 0.00 0.05 0.00 92 1006.3
20260506090000 13 210 0.0 0.0 0.00 0.05 0.00 91 1006.5
20260506084606 13 210 0.0 0.0 0.00 0.05 0.00 92 1006.4
20260506083058 13 210 0.0 1.6 0.00 0.05 0.00 91 1006.7
20260506081557 13 212 0.0 0.0 0.00 0.05 0.00 91 1006.9
20260506080106 13 212 0.0 0.0 0.00 0.05 0.00 91 1007.0
20260506073050 13 212 0.0 0.0 0.00 0.05 0.00 91 1007.3
20260506071550 14 212 0.0 3.2 0.00 0.05 0.00 90 1007.1
20260506061544 15 290 0.0 3.2 0.00 0.05 0.00 90 1007.3
20260506044532 16 292 0.0 1.6 0.00 0.05 0.00 85 1007.7
20260506043030 16 290 0.0 0.0 0.00 0.05 0.00 83 1007.9
20260506041527 16 290 0.0 0.0 0.00 0.05 0.00 82 1007.6
20260506040026 16 290 0.0 0.0 0.00 0.05 0.00 81 1007.5
20260506034529 17 290 0.0 0.0 0.00 0.05 0.05 80 1007.5
20260506033022 17 290 0.0 3.2 0.00 0.05 0.05 79 1007.3
20260506031520 17 297 0.0 3.2 0.00 0.05 0.05 78 1007.0
20260506030034 17 238 0.0 4.8 0.00 0.05 0.05 78 1006.9
20260506024544 17 242 0.0 3.2 0.00 0.05 0.05 79 1006.9
20260506023016 17 248 0.0 3.2 0.00 0.05 0.05 78 1006.8
20260506021516 17 212 0.0 1.6 0.00 0.05 0.05 78 1006.9
20260506020014 17 211 0.0 0.0 0.00 0.05 0.05 79 1006.7
20260506014514 17 231 0.0 1.6 0.00 0.05 0.05 79 1006.5
20260506013022 17 300 0.0 3.2 0.00 0.05 0.05 78 1006.2
20260506011513 17 226 0.0 4.8 0.00 0.05 0.05 78 1006.0
20260506010012 17 253 0.0 3.2 0.00 0.05 0.05 78 1006.0
20260506004512 17 197 0.0 4.8 0.00 0.05 0.05 76 1006.1
20260506003011 17 245 0.0 0.0 0.00 0.05 0.05 74 1005.4
20260506001510 17 245 0.0 0.0 0.00 0.05 0.05 73 1005.3
20260506000010 18 245 0.0 3.2 0.00 0.05 0.05 71 1005.1
20260505234509 18 200 0.0 6.4 0.00 0.05 0.05 69 1005.1
20260505233015 19 168 0.0 4.8 0.00 0.05 0.05 67 1005.0
20260505231509 19 184 1.6 9.7 0.00 0.05 0.05 66 1004.4
20260505230022 18 304 1.6 12.9 0.00 0.05 0.05 67 1004.4
20260505224508 19 304 1.6 8.0 0.00 0.05 0.05 68 1004.1
20260505223006 20 283 4.8 30.6 0.00 0.05 0.05 64 1004.3
20260505221506 20 341 4.8 17.7 0.00 0.05 0.05 63 1004.4
20260505220005 20 217 4.8 16.1 0.00 0.05 0.05 62 1004.6
20260505214506 20 243 4.8 29.0 0.00 0.05 0.05 61 1003.9
20260505213004 20 346 8.0 29.0 0.00 0.05 0.05 59 1003.7